Time,TemperatureF,DewpointF,PressureIn,WindDirection,WindDirectionDegrees,WindSpeedMPH,WindSpeedGustMPH,Humidity,HourlyPrecipIn,Conditions,Clouds,dailyrainin,SolarRadiationWatts/m^2,SoftwareType,DateUTC
2013-01-17 00:22:00,55.0,21.0,30.24,NNW,332,3.0,4.0,26,-99.99,,,-99.99,0.000000,,2013-01-17 08:22:00,
2013-01-17 00:32:00,55.0,21.0,30.24,NNW,332,3.0,4.0,26,-99.99,,,-99.99,0.000000,,2013-01-17 08:32:00,
2013-01-17 00:40:00,56.0,20.0,30.24,North,349,3.0,3.0,24,-99.99,,,-99.99,0.000000,,2013-01-17 08:40:00,
2013-01-17 01:22:00,56.0,20.0,30.24,North,349,3.0,3.0,24,-99.99,,,-99.99,0.000000,,2013-01-17 09:22:00,
2013-01-17 01:32:00,56.0,20.0,30.24,North,349,3.0,3.0,24,-99.99,,,-99.99,0.000000,,2013-01-17 09:32:00,
2013-01-17 01:40:00,58.0,19.0,30.24,NW,310,4.0,5.0,22,-99.99,,,-99.99,0.000000,,2013-01-17 09:40:00,
2013-01-17 02:22:00,58.0,19.0,30.24,NW,310,4.0,5.0,22,-99.99,,,-99.99,0.000000,,2013-01-17 10:22:00,
2013-01-17 02:32:00,58.0,19.0,30.24,NW,310,4.0,5.0,22,-99.99,,,-99.99,0.000000,,2013-01-17 10:32:00,
2013-01-17 03:22:00,60.0,16.0,30.23,NNW,331,2.0,3.0,18,-99.99,,,-99.99,0.000000,,2013-01-17 11:22:00,
2013-01-17 03:32:00,60.0,16.0,30.23,NNW,331,2.0,3.0,18,-99.99,,,-99.99,0.000000,,2013-01-17 11:32:00,
2013-01-17 04:22:00,61.0,16.0,30.22,West,270,2.0,2.0,17,-99.99,,,-99.99,0.000000,,2013-01-17 12:22:00,
2013-01-17 04:32:00,61.0,16.0,30.22,West,270,2.0,2.0,17,-99.99,,,-99.99,0.000000,,2013-01-17 12:32:00,
2013-01-17 04:40:00,60.0,17.0,30.20,NE,40,3.0,6.0,18,-99.99,,,-99.99,0.000000,,2013-01-17 12:40:00,
2013-01-17 05:22:00,60.0,17.0,30.20,NE,40,3.0,6.0,18,-99.99,,,-99.99,0.000000,,2013-01-17 13:22:00,
2013-01-17 05:33:00,60.0,17.0,30.20,NE,40,3.0,6.0,18,-99.99,,,-99.99,0.000000,,2013-01-17 13:33:00,
2013-01-17 05:40:00,61.0,13.0,30.20,ESE,114,1.0,4.0,15,-99.99,,,-99.99,0.000000,,2013-01-17 13:40:00,
2013-01-17 06:23:00,61.0,13.0,30.20,ESE,114,1.0,4.0,15,-99.99,,,-99.99,0.000000,,2013-01-17 14:23:00,
2013-01-17 06:33:00,61.0,13.0,30.20,ESE,114,1.0,4.0,15,-99.99,,,-99.99,0.000000,,2013-01-17 14:33:00,
2013-01-17 06:40:00,59.0,17.0,30.21,WNW,285,2.0,3.0,19,-99.99,,,-99.99,0.000000,,2013-01-17 14:40:00,
2013-01-17 07:22:00,59.0,17.0,30.21,WNW,285,2.0,3.0,19,-99.99,,,-99.99,0.000000,,2013-01-17 15:22:00,
2013-01-17 07:33:00,59.0,17.0,30.21,WNW,285,2.0,3.0,19,-99.99,,,-99.99,0.000000,,2013-01-17 15:33:00,
2013-01-17 07:40:00,59.0,15.0,30.22,East,83,3.0,5.0,17,-99.99,,,-99.99,16.000000,,2013-01-17 15:40:00,
2013-01-17 08:22:00,59.0,15.0,30.22,East,83,3.0,5.0,17,-99.99,,,-99.99,16.000000,,2013-01-17 16:22:00,
2013-01-17 08:33:00,59.0,15.0,30.22,East,83,3.0,5.0,17,-99.99,,,-99.99,16.000000,,2013-01-17 16:33:00,
2013-01-17 08:40:00,63.0,13.0,30.24,NE,40,1.0,4.0,14,-99.99,,,-99.99,244.000000,,2013-01-17 16:40:00,
2013-01-17 09:22:00,63.0,13.0,30.24,NE,40,1.0,4.0,14,-99.99,,,-99.99,244.000000,,2013-01-17 17:22:00,
2013-01-17 09:33:00,63.0,13.0,30.24,NE,40,1.0,4.0,14,-99.99,,,-99.99,244.000000,,2013-01-17 17:33:00,
2013-01-17 09:40:00,67.0,25.0,30.26,ESE,109,1.0,3.0,20,-99.99,,,-99.99,442.000000,,2013-01-17 17:40:00,
2013-01-17 10:22:00,67.0,25.0,30.26,ESE,109,1.0,3.0,20,-99.99,,,-99.99,442.000000,,2013-01-17 18:22:00,
2013-01-17 10:33:00,67.0,25.0,30.26,ESE,109,1.0,3.0,20,-99.99,,,-99.99,442.000000,,2013-01-17 18:33:00,
2013-01-17 10:40:00,66.0,25.0,30.25,WSW,251,0.0,1.0,21,-99.99,,,-99.99,535.000000,,2013-01-17 18:40:00,
2013-01-17 11:33:00,66.0,25.0,30.25,WSW,251,0.0,1.0,21,-99.99,,,-99.99,535.000000,,2013-01-17 19:33:00,
2013-01-17 11:40:00,69.0,34.0,30.23,SW,232,1.0,3.0,27,-99.99,,,-99.99,640.000000,,2013-01-17 19:40:00,
2013-01-17 12:22:00,69.0,34.0,30.23,SW,232,1.0,3.0,27,-99.99,,,-99.99,640.000000,,2013-01-17 20:22:00,
2013-01-17 12:33:00,69.0,34.0,30.23,SW,232,1.0,3.0,27,-99.99,,,-99.99,640.000000,,2013-01-17 20:33:00,
2013-01-17 12:40:00,66.0,34.0,30.20,West,266,2.0,4.0,31,-99.99,,,-99.99,646.000000,,2013-01-17 20:40:00,
2013-01-17 13:23:00,66.0,34.0,30.20,West,266,2.0,4.0,31,-99.99,,,-99.99,646.000000,,2013-01-17 21:23:00,
2013-01-17 13:33:00,66.0,34.0,30.20,West,266,2.0,4.0,31,-99.99,,,-99.99,646.000000,,2013-01-17 21:33:00,
2013-01-17 13:40:00,69.0,29.0,30.19,South,180,3.0,8.0,22,-99.99,,,-99.99,582.000000,,2013-01-17 21:40:00,
2013-01-17 14:22:00,69.0,29.0,30.19,South,180,3.0,8.0,22,-99.99,,,-99.99,582.000000,,2013-01-17 22:22:00,
2013-01-17 14:33:00,69.0,29.0,30.19,South,180,3.0,8.0,22,-99.99,,,-99.99,582.000000,,2013-01-17 22:33:00,
2013-01-17 14:40:00,71.0,29.0,30.18,SSW,198,3.0,6.0,21,-99.99,,,-99.99,440.000000,,2013-01-17 22:40:00,
2013-01-17 15:22:00,71.0,29.0,30.18,SSW,198,3.0,6.0,21,-99.99,,,-99.99,440.000000,,2013-01-17 23:22:00,
2013-01-17 15:32:00,71.0,29.0,30.18,SSW,198,3.0,6.0,21,-99.99,,,-99.99,440.000000,,2013-01-17 23:32:00,
2013-01-17 15:40:00,70.0,27.0,30.18,South,173,4.0,6.0,20,-99.99,,,-99.99,280.000000,,2013-01-17 23:40:00,
2013-01-17 16:23:00,70.0,27.0,30.18,South,173,4.0,6.0,20,-99.99,,,-99.99,280.000000,,2013-01-18 00:23:00,
2013-01-17 16:32:00,70.0,27.0,30.18,South,173,4.0,6.0,20,-99.99,,,-99.99,280.000000,,2013-01-18 00:32:00,
2013-01-17 16:40:00,68.0,31.0,30.18,WNW,297,1.0,2.0,25,-99.99,,,-99.99,116.000000,,2013-01-18 00:40:00,
2013-01-17 17:22:00,68.0,31.0,30.18,WNW,297,1.0,2.0,25,-99.99,,,-99.99,116.000000,,2013-01-18 01:22:00,
2013-01-17 17:33:00,68.0,31.0,30.18,WNW,297,1.0,2.0,25,-99.99,,,-99.99,116.000000,,2013-01-18 01:33:00,
2013-01-17 17:40:00,64.0,18.0,30.18,East,96,6.0,10.0,17,-99.99,,,-99.99,0.000000,,2013-01-18 01:40:00,
2013-01-17 18:22:00,64.0,18.0,30.18,East,96,6.0,10.0,17,-99.99,,,-99.99,0.000000,,2013-01-18 02:22:00,
2013-01-17 18:32:00,64.0,18.0,30.18,East,96,6.0,10.0,17,-99.99,,,-99.99,0.000000,,2013-01-18 02:32:00,
2013-01-17 19:22:00,65.0,11.0,30.19,East,86,3.0,5.0,12,-99.99,,,-99.99,0.000000,,2013-01-18 03:22:00,
2013-01-17 20:22:00,65.0,9.0,30.20,ESE,110,5.0,8.0,11,-99.99,,,-99.99,0.000000,,2013-01-18 04:22:00,
2013-01-17 22:22:00,64.0,8.0,30.20,South,171,1.0,2.0,11,-99.99,,,-99.99,0.000000,,2013-01-18 06:22:00,
2013-01-17 22:40:00,60.0,9.0,30.20,East,91,4.0,7.0,13,-99.99,,,-99.99,0.000000,,2013-01-18 06:40:00,
2013-01-17 23:22:00,60.0,9.0,30.20,East,91,4.0,7.0,13,-99.99,,,-99.99,0.000000,,2013-01-18 07:22:00,
2013-01-17 23:32:00,60.0,9.0,30.20,East,91,4.0,7.0,13,-99.99,,,-99.99,0.000000,,2013-01-18 07:32:00,